sat.trackr.live / text

‹ back to catalog

QIANFAN-30

NORAD 61563 · 2024-185M

PAYLOAD ACTIVE UNKNOWN

§ Identity

Operator
Country
PRC
Launch date
2024-10-15
Launch site
TAISC
Launch vehicle
Mass (kg)
RCS (m²)

External: N2YO · Heavens-Above · Gunter

§ Orbital elements

Epoch: 2026-09-22T20:59:48.896736Z

Period
106.66 min
Inclination
88.9827°
Eccentricity
0.0005927
Mean motion
13.50076876 rev/d
Perigee alt
1,067.6 km
Apogee alt
1,076.4 km
Semi-major
7,450.1 km
B*
1.9014e-4
RAAN
51.5764°
Arg perigee
301.2491°
Mean anomaly
58.8078°
Rev number
10,640

§ Raw data

QIANFAN-301 61563U 24185M   26265.87487149  .00000133  00000+0  19014-3 0  99942 61563  88.9827  51.5764 0005927 301.2491  58.8078 13.50076876106406

JSON: /api/v1/satellites/61563 · /tle

For live sub-satellite position, see the globe view (requires WebGL).

§ Visibility from observer

Set your observer location to see the next 7 days of passes ≥ 10°. The values pass through the URL so the page stays shareable.

No JS? Fill the form by hand. The geolocation button needs JavaScript.